Wind_Speed
59 61 62 63 64 66 66 67 67 67 67 67 67 67 68 69 71 73 74 76 76 74 73 72 70 70 68 67 65 63 61 59 55 50 49 48 47 45 41 36 30 26 32
59 61 62 64 65 66 67 67 68 68 67 67 67 67 67 69 70 71 73 74 74 73 71 70 68 68 66 65 63 61 59 57 54 50 48 46 45 44 41 36 31 27 28
59 61 63 65 66 67 67 67 68 68 67 67 67 67 67 67 69 71 72 72 72 71 69 68 67 66 64 63 61 60 57 54 53 51 47 45 43 42 39 35 31 27 26
60 62 64 66 67 67 67 67 67 66 66 66 65 65 65 66 68 70 70 70 70 69 67 66 65 64 63 61 59 58 55 52 51 50 48 44 42 40 38 33 29 27 25
62 63 65 66 67 68 67 66 65 64 64 63 63 63 63 64 67 68 68 68 68 67 65 64 63 63 61 60 59 58 55 51 50 49 47 45 42 40 37 33 28 25 24
63 64 66 67 67 67 66 64 64 63 62 61 61 61 62 63 65 66 66 66 66 65 63 62 61 61 60 58 57 57 54 51 50 49 48 45 42 40 37 32 27 23 22
64 65 65 65 65 64 63 62 61 61 59 58 58 59 60 61 63 64 63 64 64 63 62 61 59 59 58 56 55 54 51 49 48 48 47 45 42 39 35 30 26 22 20
63 63 63 63 61 61 60 59 58 57 55 55 56 57 57 58 60 60 60 61 61 61 60 59 58 56 56 55 53 52 50 47 45 45 44 42 40 37 33 28 23 19 18
61 60 60 59 58 57 56 54 53 52 52 52 53 54 55 57 58 58 58 59 59 58 57 57 56 55 54 53 52 51 48 44 43 42 42 41 38 35 31 25 20 17 16
57 55 55 54 54 52 51 49 49 49 50 50 50 52 53 54 55 56 56 57 57 55 54 54 54 53 53 52 51 51 47 43 40 40 39 38 36 32 27 22 17 14 14
51 51 50 50 49 48 47 46 46 47 47 47 48 49 51 52 53 53 54 55 55 53 52 52 51 51 51 50 49 49 47 42 40 39 38 36 33 29 24 19 14 11 12
49 49 49 48 47 45 44 44 45 44 44 45 46 48 49 50 51 51 52 53 53 51 50 50 49 49 49 48 47 47 45 40 38 37 37 35 31 27 22 16 11 8 11
47 48 47 45 45 44 43 43 43 43 44 45 46 47 48 48 49 49 49 51 51 50 49 48 48 47 47 46 45 45 42 39 36 35 35 33 29 24 19 14 9 6 11
46 45 45 45 45 45 44 44 44 43 44 45 45 45 46 47 47 47 48 49 49 48 47 47 46 46 45 45 44 44 41 37 35 34 33 31 27 22 17 11 6 5 11
47 47 47 46 46 47 47 46 45 45 45 44 44 44 45 45 45 45 46 47 47 45 45 45 44 44 43 43 43 42 39 35 33 32 31 29 25 20 15 10 4 4 12
49 49 49 49 49 50 49 48 47 47 46 44 43 43 43 43 44 43 44 45 44 43 42 42 42 42 41 40 40 39 37 33 30 29 29 27 23 18 13 8 3 4 12
51 52 52 52 51 51 51 50 48 47 45 43 43 43 42 42 42 41 42 42 42 41 40 40 40 39 39 38 38 37 35 31 28 27 26 25 22 17 12 8 3 3 11
53 53 53 53 53 52 52 51 49 47 44 43 42 42 41 40 40 39 40 40 39 39 38 38 38 37 37 36 35 35 33 30 27 25 24 23 20 16 11 7 3 3 9
54 54 54 54 54 54 53 51 49 46 44 42 41 40 39 38 38 37 37 37 37 36 36 36 36 35 35 34 34 33 32 29 26 23 22 21 18 15 10 6 3 4 8
54 55 55 55 54 54 52 49 47 45 43 41 39 38 37 36 35 35 35 35 34 34 34 34 34 33 33 33 32 31 30 28 25 22 20 18 17 13 9 5 6 6 7
54 55 55 54 53 53 52 49 47 44 42 39 38 36 35 34 33 32 32 32 32 32 32 32 32 32 32 31 30 30 29 27 24 20 18 16 14 11 8 6 6 6 7
54 54 54 54 53 52 50 48 45 42 40 37 35 34 32 31 30 30 29 29 29 29 30 30 30 30 30 29 29 28 28 26 23 19 16 14 11 8 5 4 5 6 6
52 53 54 54 52 50 47 44 41 39 36 33 31 30 29 29 28 27 26 26 27 27 28 28 28 28 28 28 27 27 26 25 23 19 15 12 9 6 4 4 4 6 7
51 52 53 52 49 46 43 41 38 36 33 29 28 27 27 26 25 24 23 23 24 25 26 26 26 26 26 26 26 26 25 25 23 19 15 11 7 4 3 4 4 5 7
50 51 51 50 46 43 40 37 33 30 27 24 25 25 24 24 23 21 21 21 22 23 24 25 25 24 24 25 25 24 24 24 23 19 15 10 5 2 3 4 4 5 7
50 50 50 47 43 40 37 33 27 24 22 22 22 22 22 21 20 18 18 18 19 21 22 23 23 23 23 23 24 23 23 23 22 19 15 10 5 1 4 5 5 6 7
Wind_Direction
298 300 303 305 306 308 310 311 312 314 315 316 318 319 320 321 321 322 322 323 324 325 327 328 329 329 329 330 330 329 327 327 330 332 328 325 322 321 320 316 303 278 244
298 300 302 304 305 307 310 311 312 314 315 316 317 319 320 320 321 321 322 322 323 325 327 329 329 329 330 330 330 329 328 327 328 331 330 326 322 319 318 315 306 287 254
299 300 302 303 305 308 310 311 313 314 315 316 317 318 320 320 320 321 322 322 323 325 328 329 330 330 331 331 331 330 329 327 328 330 331 327 323 319 317 314 305 290 263
299 300 302 304 306 308 310 311 312 313 315 316 317 318 319 319 320 321 321 322 323 325 328 330 330 331 331 332 332 331 330 328 328 330 331 329 325 321 318 314 304 290 268
300 301 303 304 306 308 309 310 312 313 315 316 317 317 317 319 319 320 321 322 323 326 328 330 331 331 332 332 333 333 332 330 330 330 331 331 327 323 319 315 306 289 269
301 303 304 305 307 308 309 310 312 314 315 316 316 316 317 318 319 320 321 322 324 326 329 331 331 332 333 334 334 334 333 331 331 331 332 331 329 324 320 315 306 290 269
303 305 305 306 308 309 309 310 312 314 315 315 315 316 317 318 319 320 322 323 324 326 329 331 332 333 333 334 335 336 334 332 331 331 331 330 328 325 320 314 304 290 266
304 305 307 308 308 309 310 310 311 312 314 314 315 316 317 317 319 321 322 323 324 327 330 332 333 334 334 335 336 337 336 334 332 331 330 330 328 326 322 316 303 286 261
305 306 307 308 309 309 310 311 311 312 313 314 315 317 317 317 319 321 322 323 324 327 330 332 333 334 335 335 337 339 338 335 333 332 332 332 330 328 324 317 304 284 257
306 308 309 310 311 312 312 312 312 312 313 314 316 317 318 318 319 321 322 323 325 327 330 332 333 334 336 337 338 340 340 337 335 335 335 334 333 330 326 319 305 283 251
309 310 311 312 312 313 313 313 313 314 315 315 316 318 318 319 319 321 322 323 325 327 330 332 333 335 337 338 339 340 340 339 339 339 339 339 337 334 329 322 308 280 239
310 311 312 312 313 313 314 314 315 315 315 316 316 317 318 320 320 321 322 323 325 328 331 333 334 336 338 339 340 341 341 341 342 343 343 342 340 338 334 326 311 273 225
311 311 311 311 312 313 313 314 314 314 315 315 316 317 318 319 320 321 322 323 325 328 331 333 335 336 338 340 341 342 343 344 345 346 346 346 344 342 338 331 315 258 210
312 311 311 311 311 311 312 312 313 313 313 314 315 316 317 319 320 321 322 322 325 328 331 333 335 337 339 341 342 344 345 346 347 349 349 350 349 347 344 337 318 237 198
311 311 310 310 310 310 310 310 311 311 311 312 313 314 316 317 319 320 321 322 324 328 331 333 335 337 340 341 343 345 346 347 348 351 352 353 353 352 350 344 323 217 193
309 309 309 308 308 308 308 307 308 308 309 309 310 312 313 315 316 318 319 321 323 328 331 333 335 338 340 342 344 346 347 348 350 352 354 356 357 358 357 354 337 208 192
306 306 306 306 305 305 305 305 305 305 306 307 307 309 310 312 314 316 318 319 323 327 330 333 335 338 340 342 345 347 348 350 351 353 355 358 360 3 6 8 6 195 191
305 305 305 304 303 303 302 302 302 302 303 304 304 305 307 309 311 313 316 318 321 326 330 333 335 338 341 343 345 348 349 350 352 353 355 358 1 5 8 13 32 168 184
304 304 304 303 303 302 301 299 299 299 299 300 301 301 303 305 308 311 314 316 320 325 329 332 335 338 341 344 346 349 350 351 352 354 356 360 3 8 17 31 73 138 172
304 304 304 303 301 301 300 298 296 295 295 295 296 297 299 301 305 308 311 315 319 324 329 332 335 338 341 344 347 349 351 352 353 355 357 0 5 12 27 55 97 119 151
306 305 305 304 302 300 299 296 293 292 291 291 291 291 294 297 301 305 309 313 318 324 328 332 335 338 342 345 348 350 352 353 354 355 358 1 5 14 33 67 108 118 136
308 308 308 307 304 302 299 295 292 289 286 285 285 285 288 293 297 302 306 311 317 323 328 332 335 338 342 346 349 351 352 354 354 355 357 360 4 13 37 73 110 124 134
310 311 311 310 308 305 301 295 291 287 283 280 279 280 283 288 293 298 303 309 316 323 328 332 335 339 343 347 349 351 353 355 355 355 356 359 4 18 51 94 118 129 135
313 314 315 314 311 309 304 298 291 285 279 273 271 273 277 283 289 294 301 308 315 323 329 333 336 340 344 348 350 352 354 356 356 356 357 359 7 33 83 112 127 136 135
314 316 316 315 312 309 306 301 293 283 273 265 263 266 271 279 284 290 298 306 315 323 329 333 337 341 345 349 352 353 355 357 359 359 360 3 12 56 117 130 133 140 140
316 316 316 315 311 308 305 302 292 280 267 258 257 259 266 273 279 286 295 306 316 325 330 334 338 343 347 350 353 355 357 359 1 2 3 6 14 98 142 143 143 146 145
Height
5698 5692 5686 5678 5670 5662 5654 5645 5635 5626 5616 5606 5596 5585 5575 5564 5552 5540 5527 5513 5499 5483 5467 5451 5434 5417 5401 5385 5370 5356 5342 5328 5319 5312 5298 5286 5275 5265 5258 5251 5246 5244 5244
5686 5679 5673 5665 5657 5649 5641 5632 5622 5613 5603 5593 5583 5573 5562 5551 5539 5527 5514 5501 5487 5472 5456 5440 5423 5407 5392 5376 5362 5347 5334 5321 5310 5303 5293 5280 5269 5259 5251 5245 5239 5236 5235
5673 5666 5659 5651 5644 5636 5627 5618 5609 5600 5590 5580 5571 5560 5550 5539 5527 5515 5503 5490 5475 5460 5445 5430 5414 5398 5383 5368 5354 5339 5326 5314 5302 5293 5285 5274 5263 5253 5245 5238 5232 5228 5227
5659 5652 5645 5638 5630 5622 5614 5605 5596 5586 5577 5567 5558 5548 5538 5527 5516 5504 5492 5479 5464 5449 5434 5419 5404 5389 5374 5360 5347 5333 5319 5307 5295 5285 5276 5266 5256 5247 5238 5231 5226 5221 5219
5645 5638 5631 5623 5615 5607 5599 5590 5582 5573 5564 5555 5545 5536 5526 5515 5504 5492 5480 5468 5454 5439 5425 5410 5395 5380 5365 5351 5337 5323 5310 5298 5288 5277 5268 5258 5249 5239 5231 5224 5219 5215 5212
5630 5624 5616 5608 5601 5593 5585 5576 5568 5560 5551 5542 5533 5524 5514 5504 5493 5481 5470 5458 5445 5431 5416 5402 5387 5372 5358 5344 5330 5316 5302 5290 5279 5269 5260 5251 5242 5233 5225 5218 5213 5209 5207
5616 5609 5601 5593 5586 5578 5570 5563 5555 5547 5539 5530 5521 5512 5503 5492 5481 5470 5459 5448 5435 5421 5407 5393 5380 5365 5351 5338 5325 5311 5298 5285 5274 5264 5254 5245 5236 5228 5219 5213 5207 5204 5202
5601 5594 5586 5579 5571 5564 5556 5549 5542 5534 5527 5518 5510 5501 5491 5481 5471 5460 5449 5437 5425 5411 5398 5385 5372 5359 5344 5332 5320 5307 5293 5281 5270 5261 5251 5241 5232 5223 5214 5208 5203 5200 5199
5585 5579 5572 5564 5557 5550 5543 5536 5529 5522 5515 5507 5498 5490 5481 5471 5461 5450 5439 5428 5416 5403 5390 5377 5365 5352 5340 5327 5315 5302 5289 5277 5266 5256 5246 5236 5227 5218 5210 5205 5200 5198 5197
5571 5565 5558 5551 5543 5537 5530 5524 5517 5511 5503 5496 5487 5479 5470 5461 5450 5440 5430 5420 5408 5396 5383 5370 5358 5346 5333 5320 5308 5296 5284 5274 5264 5254 5243 5233 5223 5215 5208 5202 5198 5196 5196
5558 5552 5545 5538 5531 5525 5519 5513 5506 5499 5492 5485 5477 5469 5460 5451 5441 5431 5421 5411 5400 5388 5376 5364 5352 5340 5327 5315 5303 5291 5279 5269 5259 5249 5240 5230 5221 5213 5206 5201 5198 5196 5196
5546 5540 5533 5527 5520 5513 5507 5502 5495 5488 5481 5474 5466 5458 5449 5441 5432 5422 5412 5403 5393 5381 5370 5358 5346 5335 5323 5311 5300 5288 5276 5266 5256 5246 5237 5228 5220 5212 5206 5201 5198 5197 5198
5534 5528 5522 5516 5509 5503 5497 5491 5484 5478 5471 5463 5456 5448 5439 5431 5423 5413 5404 5395 5385 5374 5363 5352 5341 5330 5319 5308 5296 5285 5274 5263 5254 5245 5236 5227 5219 5212 5207 5203 5200 5199 5200
5523 5517 5511 5505 5499 5492 5486 5480 5473 5467 5460 5453 5445 5438 5430 5422 5414 5405 5396 5387 5377 5367 5356 5346 5335 5325 5314 5304 5293 5282 5271 5261 5252 5244 5235 5227 5219 5213 5208 5205 5203 5202 5204
5511 5505 5499 5493 5487 5481 5475 5468 5462 5456 5449 5442 5435 5428 5420 5413 5405 5397 5389 5380 5371 5361 5351 5341 5331 5321 5311 5300 5289 5279 5269 5260 5251 5243 5235 5228 5221 5215 5211 5208 5206 5206 5208
5499 5493 5487 5481 5474 5468 5462 5456 5450 5444 5437 5431 5424 5418 5411 5404 5396 5389 5381 5373 5364 5355 5345 5336 5327 5317 5308 5298 5288 5278 5268 5259 5251 5244 5236 5229 5223 5217 5214 5211 5210 5210 5212
5485 5479 5473 5467 5461 5454 5448 5443 5437 5431 5425 5419 5413 5407 5401 5395 5388 5381 5374 5366 5358 5349 5340 5331 5323 5314 5305 5295 5286 5277 5267 5259 5251 5244 5237 5231 5225 5220 5217 5215 5213 5214 5215
5471 5464 5458 5452 5446 5440 5434 5429 5424 5418 5414 5408 5403 5397 5392 5386 5380 5373 5367 5360 5352 5344 5335 5327 5319 5310 5302 5293 5284 5275 5266 5258 5251 5244 5238 5233 5228 5223 5220 5218 5217 5217 5219
5456 5449 5443 5437 5431 5424 5419 5414 5409 5405 5401 5396 5391 5387 5382 5377 5371 5366 5360 5353 5346 5339 5331 5323 5315 5307 5299 5291 5282 5274 5266 5258 5251 5245 5240 5235 5230 5226 5223 5221 5220 5221 5222
5440 5433 5427 5421 5415 5409 5403 5398 5394 5391 5387 5384 5380 5376 5372 5368 5363 5358 5353 5347 5341 5334 5326 5319 5312 5304 5297 5289 5281 5273 5265 5258 5251 5245 5240 5236 5232 5229 5226 5224 5224 5224 5225
5424 5417 5411 5405 5398 5392 5387 5383 5379 5376 5374 5371 5368 5366 5363 5360 5356 5351 5346 5341 5335 5329 5322 5315 5308 5302 5294 5287 5279 5271 5264 5257 5251 5246 5241 5238 5234 5231 5229 5228 5227 5228 5229
5408 5401 5395 5388 5382 5376 5370 5366 5363 5361 5359 5358 5356 5355 5353 5351 5348 5344 5340 5335 5330 5324 5318 5312 5305 5299 5292 5285 5278 5271 5264 5257 5251 5246 5242 5239 5236 5234 5232 5231 5231 5231 5232
5394 5387 5380 5372 5366 5359 5354 5349 5347 5346 5345 5345 5345 5344 5344 5343 5340 5337 5334 5330 5325 5320 5314 5309 5303 5297 5290 5283 5277 5270 5264 5257 5251 5246 5242 5239 5237 5235 5234 5233 5233 5234 5235
5381 5373 5365 5357 5350 5344 5339 5335 5332 5331 5331 5333 5334 5335 5335 5335 5333 5331 5328 5325 5321 5316 5311 5306 5300 5294 5288 5282 5276 5269 5263 5257 5251 5246 5243 5240 5238 5236 5236 5236 5236 5237 5238
5368 5360 5352 5344 5337 5331 5326 5322 5319 5319 5320 5322 5324 5326 5327 5328 5327 5325 5323 5320 5317 5313 5308 5303 5298 5292 5287 5281 5275 5269 5263 5257 5252 5247 5243 5240 5239 5238 5238 5238 5239 5240 5241
5356 5348 5340 5332 5326 5320 5316 5312 5310 5310 5312 5314 5316 5319 5320 5321 5321 5320 5319 5316 5313 5309 5305 5301 5296 5291 5285 5280 5274 5269 5263 5258 5252 5247 5243 5241 5240 5239 5239 5240 5241 5242 5243